Weather History for Denver, CO

Change the Weather History Date:

Monday, August 6, 2012

  Actual Average (KDEN) Record (KDEN)
Temperature  
Mean Temperature 84 °F 74 °F  
Max Temperature 98 °F 89 °F 100 °F (1980)
Min Temperature 71 °F 60 °F 48 °F (1887)
Degree Days  
Heating Degree Days 0 0  
Month to date heating degree days 0  
Since 1 June heating degree days 68  
Since 1 July heating degree days 6  
Cooling Degree Days 20 9  
Month to date cooling degree days 59  
Year to date cooling degree days 503  
Since 1 June cooling degree days 481  
Growing Degree Days 34 (Base 50)    
Moisture  
Dew Point 43 °F    
Average Humidity 29    
Maximum Humidity 41    
Minimum Humidity 10    
Precipitation  
Precipitation 0.00 in 0.07 in 1.29 in (2008)
Month to date precipitation 0.44  
Year to date precipitation 10.11  
Snow  
Snow 0.00 in - - ()
Month to date snowfall  
Since 1 June snowfall  
Since 1 July snowfall  
Snow Depth -    
Sea Level Pressure  
Sea Level Pressure 30.25 in    
Wind  
Wind Speed 12 mph (WSW)    
Max Wind Speed 23 mph    
Max Gust Speed 26 mph    
Visibility 10 miles    
Events      
T = Trace of Precipitation, MM = Missing Value Source: NWS Daily Summary

Daily Weather History Graph

Daily Weather History Graph

Search for Another Location

Airport:

Trip Planner

Search our weather history database for the weather conditions in past years. The results will help you decide how hot, cold, wet, or windy it might be!

Date:

Astronomy

Aug. 06, 2012 Rise Set
Actual Time 6:02 AM MDT 8:05 PM MDT
Civil Twilight 5:32 AM MDT 8:34 PM MDT
Nautical Twilight 4:56 AM MDT 9:10 PM MDT
Astronomical Twilight 4:16 AM MDT 9:49 PM MDT
Moon 10:15 PM MDT (8/6) 10:53 AM MDT (8/6)
Length of Visible Light 15h 02m
Length of Day
14h 02m
Waning Gibbous, 78% of the Moon is Illuminated
Aug 6
Waning Gibbous
Aug 9
Last Quarter
Aug 17
New
Aug 24
First Quarter
Aug 31
Full

Hourly Weather History & Observations

Time (MDT) Temp. Dew Point Humidity Pressure Visibility Wind Dir Wind Speed Gust Speed Precip Events Conditions
12:17 AM 77.0 °F 48.2 °F 36% 30.24 in 10.0 mi South 15.0 mph - N/A   Clear
12:37 AM 73.4 °F 48.2 °F 41% 30.24 in 10.0 mi South 11.5 mph - N/A   Clear
12:57 AM 77.0 °F 46.4 °F 34% 30.23 in 10.0 mi SSW 12.7 mph - N/A   Clear
1:16 AM 75.2 °F 48.2 °F 38% 30.23 in 10.0 mi South 10.4 mph - N/A   Clear
1:37 AM 73.4 °F 48.2 °F 41% 30.22 in 10.0 mi SSW 13.8 mph - N/A   Clear
1:57 AM 77.0 °F 46.4 °F 34% 30.22 in 10.0 mi SSW 13.8 mph 18.4 mph N/A   Clear
2:17 AM 77.0 °F 46.4 °F 34% 30.22 in 10.0 mi SSW 15.0 mph - N/A   Clear
2:37 AM 77.0 °F 44.6 °F 32% 30.22 in 10.0 mi SSW 13.8 mph - N/A   Clear
2:56 AM 77.0 °F 44.6 °F 32% 30.22 in 10.0 mi SSW 13.8 mph - N/A   Clear
3:17 AM 77.0 °F 44.6 °F 32% 30.21 in 10.0 mi SSW 13.8 mph - N/A   Clear
3:37 AM 77.0 °F 44.6 °F 32% 30.21 in 10.0 mi SSW 11.5 mph - N/A   Clear
3:56 AM 77.0 °F 44.6 °F 32% 30.21 in 10.0 mi SSW 10.4 mph - N/A   Clear
4:17 AM 77.0 °F 44.6 °F 32% 30.21 in 10.0 mi SSW 10.4 mph - N/A   Clear
4:37 AM 77.0 °F 42.8 °F 29% 30.22 in 10.0 mi SW 8.1 mph - N/A   Clear
4:57 AM 75.2 °F 44.6 °F 34% 30.22 in 10.0 mi SSW 11.5 mph - N/A   Clear
5:17 AM 75.2 °F 44.6 °F 34% 30.22 in 10.0 mi SW 10.4 mph - N/A   Clear
5:37 AM 73.4 °F 44.6 °F 36% 30.22 in 10.0 mi SSW 10.4 mph - N/A   Clear
5:57 AM 73.4 °F 42.8 °F 33% 30.23 in 10.0 mi SSW 8.1 mph - N/A   Clear
6:16 AM 71.6 °F 44.6 °F 38% 30.24 in 10.0 mi South 6.9 mph - N/A   Clear
6:37 AM 71.6 °F 42.8 °F 35% 30.24 in 10.0 mi SSW 9.2 mph - N/A   Clear
6:57 AM 77.0 °F 42.8 °F 29% 30.25 in 10.0 mi SSW 10.4 mph - N/A   Clear
7:55 AM 82.4 °F 42.8 °F 25% 30.26 in 40.0 mi SSW 5.8 mph - N/A   Mostly Cloudy
8:50 AM 87.8 °F 39.2 °F 18% 30.26 in 40.0 mi WSW 6.9 mph - N/A   Scattered Clouds
10:47 AM 93.2 °F 35.6 °F 13% 30.27 in 40.0 mi NNW 8.1 mph - N/A   Scattered Clouds
12:47 PM 96.8 °F 33.8 °F 11% 30.25 in 40.0 mi North 12.7 mph 26.5 mph N/A   Scattered Clouds
1:48 PM 98.6 °F 33.8 °F 10% 30.23 in 40.0 mi North 9.2 mph 19.6 mph N/A   Mostly Cloudy
3:55 PM 91.4 °F 35.6 °F 14% 30.22 in 40.0 mi NW 17.3 mph - N/A   Mostly Cloudy
4:47 PM 93.2 °F 32.0 °F 11% 30.23 in 30.0 mi NNW 23.0 mph - N/A   Overcast
5:47 PM 89.6 °F 41.0 °F 18% 30.26 in 30.0 mi WNW 18.4 mph 26.5 mph N/A   Overcast
6:48 PM 84.2 °F 41.0 °F 22% 30.26 in 30.0 mi WNW 19.6 mph 24.2 mph N/A   Overcast
7:50 PM 80.6 °F 46.4 °F 30% 30.28 in 30.0 mi WNW 17.3 mph 25.3 mph N/A   Overcast
8:55 PM 77.0 °F 46.4 °F 34% 30.29 in 30.0 mi NW 12.7 mph - N/A   Mostly Cloudy
9:17 PM 77.0 °F 44.6 °F 32% 30.30 in 10.0 mi WNW 11.5 mph - N/A   Clear
9:37 PM 77.0 °F 44.6 °F 32% 30.31 in 10.0 mi WNW 12.7 mph - N/A   Mostly Cloudy
9:57 PM 77.0 °F 44.6 °F 32% 30.31 in 10.0 mi WNW 11.5 mph - N/A   Overcast
10:16 PM 78.8 °F 44.6 °F 30% 30.32 in 10.0 mi NW 5.8 mph - N/A   Overcast
10:37 PM 78.8 °F 44.6 °F 30% 30.32 in 10.0 mi WNW 15.0 mph 20.7 mph N/A   Overcast
10:57 PM 78.8 °F 44.6 °F 30% 30.31 in 10.0 mi WNW 12.7 mph - N/A   Scattered Clouds
11:17 PM 78.8 °F 44.6 °F 30% 30.31 in 10.0 mi WNW 11.5 mph - N/A   Mostly Cloudy
11:36 PM 78.8 °F 46.4 °F 32% 30.31 in 10.0 mi West 6.9 mph - N/A   Overcast
11:57 PM 78.8 °F 44.6 °F 30% 30.31 in 10.0 mi West 10.4 mph - N/A   Overcast